Time,TemperatureF,DewpointF,PressureIn,WindDirection,WindDirectionDegrees,WindSpeedMPH,WindSpeedGustMPH,Humidity,HourlyPrecipIn,Conditions,Clouds,dailyrainin,SolarRadiationWatts/m^2,SoftwareType,DateUTC
2013-01-04 00:02:00,39.7,35.6,30.26,WNW,302,0.0,-999.0,85,0.00,,,0.00,0,Wunderground v.1.15,2013-01-04 08:02:00,
2013-01-04 00:08:00,39.4,35.6,30.26,WNW,302,0.0,-999.0,86,0.00,,,0.00,0,Wunderground v.1.15,2013-01-04 08:08:00,
2013-01-04 00:14:00,39.4,35.6,30.26,WNW,302,0.0,-999.0,86,0.00,,,0.00,0,Wunderground v.1.15,2013-01-04 08:14:00,
2013-01-04 00:20:00,39.2,35.4,30.27,WNW,302,0.0,-999.0,86,0.00,,,0.00,0,Wunderground v.1.15,2013-01-04 08:20:00,
2013-01-04 00:25:00,39.0,35.2,30.26,WNW,302,0.0,-999.0,86,0.00,,,0.00,0,Wunderground v.1.15,2013-01-04 08:25:00,
2013-01-04 00:31:00,38.9,35.1,30.27,WNW,302,0.0,-999.0,86,0.00,,,0.00,0,Wunderground v.1.15,2013-01-04 08:31:00,
2013-01-04 00:37:00,38.7,34.9,30.27,WNW,302,0.0,-999.0,86,0.00,,,0.00,0,Wunderground v.1.15,2013-01-04 08:37:00,
2013-01-04 00:43:00,38.4,34.9,30.27,WNW,302,0.0,-999.0,87,0.00,,,0.00,0,Wunderground v.1.15,2013-01-04 08:43:00,
2013-01-04 00:48:00,38.4,34.9,30.26,WNW,302,0.0,-999.0,87,0.00,,,0.00,0,Wunderground v.1.15,2013-01-04 08:48:00,
2013-01-04 00:53:00,38.9,35.4,30.26,WNW,302,0.0,-999.0,87,0.00,,,0.00,0,Wunderground v.1.15,2013-01-04 08:53:00,
2013-01-04 00:59:00,39.2,35.7,30.26,WNW,302,0.0,-999.0,87,0.00,,,0.00,0,Wunderground v.1.15,2013-01-04 08:59:00,
2013-01-04 01:05:00,39.0,35.5,30.26,WNW,302,0.0,-999.0,87,0.00,,,0.00,0,Wunderground v.1.15,2013-01-04 09:05:00,
2013-01-04 01:11:00,39.0,35.7,30.26,WNW,302,0.0,-999.0,88,0.00,,,0.00,0,Wunderground v.1.15,2013-01-04 09:11:00,
2013-01-04 01:16:00,38.9,35.6,30.26,WNW,302,0.0,-999.0,88,0.00,,,0.00,0,Wunderground v.1.15,2013-01-04 09:16:00,
2013-01-04 01:22:00,38.7,35.5,30.26,WNW,302,0.0,-999.0,88,0.00,,,0.00,0,Wunderground v.1.15,2013-01-04 09:22:00,
2013-01-04 01:28:00,38.5,35.3,30.26,WNW,302,0.0,-999.0,88,0.00,,,0.00,0,Wunderground v.1.15,2013-01-04 09:28:00,
2013-01-04 01:33:00,38.5,35.3,30.26,WNW,302,0.0,-999.0,88,0.00,,,0.00,0,Wunderground v.1.15,2013-01-04 09:33:00,
2013-01-04 01:39:00,38.2,35.0,30.26,WNW,302,0.0,-999.0,88,0.00,,,0.00,0,Wunderground v.1.15,2013-01-04 09:39:00,
2013-01-04 01:45:00,38.0,35.0,30.26,WNW,302,0.0,-999.0,89,0.00,,,0.00,0,Wunderground v.1.15,2013-01-04 09:45:00,
2013-01-04 01:51:00,37.5,34.6,30.26,WNW,302,0.0,-999.0,89,0.00,,,0.00,0,Wunderground v.1.15,2013-01-04 09:51:00,
2013-01-04 01:57:00,37.4,34.5,30.26,WNW,302,0.0,-999.0,89,0.00,,,0.00,0,Wunderground v.1.15,2013-01-04 09:57:00,
2013-01-04 02:02:00,37.0,34.1,30.26,WNW,302,0.0,-999.0,89,0.00,,,0.00,0,Wunderground v.1.15,2013-01-04 10:02:00,
2013-01-04 02:08:00,36.6,33.9,30.26,WNW,302,0.0,-999.0,90,0.00,,,0.00,0,Wunderground v.1.15,2013-01-04 10:08:00,
2013-01-04 02:14:00,36.4,33.7,30.26,WNW,302,0.0,-999.0,90,0.00,,,0.00,0,Wunderground v.1.15,2013-01-04 10:14:00,
2013-01-04 02:20:00,36.3,33.6,30.26,WNW,302,0.0,-999.0,90,0.00,,,0.00,0,Wunderground v.1.15,2013-01-04 10:20:00,
2013-01-04 02:25:00,36.2,33.5,30.26,WNW,302,0.0,-999.0,90,0.00,,,0.00,0,Wunderground v.1.15,2013-01-04 10:25:00,
2013-01-04 02:31:00,36.3,33.9,30.26,WNW,302,0.0,-999.0,91,0.00,,,0.00,0,Wunderground v.1.15,2013-01-04 10:31:00,
2013-01-04 02:37:00,36.2,33.5,30.26,WNW,302,0.0,-999.0,90,0.00,,,0.00,0,Wunderground v.1.15,2013-01-04 10:37:00,
2013-01-04 02:43:00,36.1,33.5,30.26,WNW,302,0.0,-999.0,90,0.00,,,0.00,0,Wunderground v.1.15,2013-01-04 10:43:00,
2013-01-04 02:49:00,36.1,33.5,30.27,WNW,302,0.0,-999.0,90,0.00,,,0.00,0,Wunderground v.1.15,2013-01-04 10:49:00,
2013-01-04 02:55:00,35.9,33.3,30.27,WNW,302,0.0,-999.0,90,0.00,,,0.00,0,Wunderground v.1.15,2013-01-04 10:55:00,
2013-01-04 03:01:00,35.8,33.4,30.27,WNW,302,0.0,-999.0,91,0.00,,,0.00,0,Wunderground v.1.15,2013-01-04 11:01:00,
2013-01-04 03:07:00,35.7,33.3,30.26,WNW,302,0.0,-999.0,91,0.00,,,0.00,0,Wunderground v.1.15,2013-01-04 11:07:00,
2013-01-04 03:13:00,35.8,33.4,30.26,WNW,302,0.0,-999.0,91,0.00,,,0.00,0,Wunderground v.1.15,2013-01-04 11:13:00,
2013-01-04 03:18:00,35.9,33.5,30.26,WNW,302,0.0,-999.0,91,0.00,,,0.00,0,Wunderground v.1.15,2013-01-04 11:18:00,
2013-01-04 03:24:00,36.0,33.6,30.26,WNW,302,0.0,-999.0,91,0.00,,,0.00,0,Wunderground v.1.15,2013-01-04 11:24:00,
2013-01-04 03:30:00,35.5,32.9,30.26,WNW,302,0.0,-999.0,90,0.00,,,0.00,0,Wunderground v.1.15,2013-01-04 11:30:00,
2013-01-04 03:36:00,35.3,32.7,30.26,WNW,302,0.0,-999.0,90,0.00,,,0.00,0,Wunderground v.1.15,2013-01-04 11:36:00,
2013-01-04 03:42:00,35.1,32.7,30.27,WNW,302,0.0,-999.0,91,0.00,,,0.00,0,Wunderground v.1.15,2013-01-04 11:42:00,
2013-01-04 03:47:00,34.9,32.5,30.27,WNW,302,0.0,-999.0,91,0.00,,,0.00,0,Wunderground v.1.15,2013-01-04 11:47:00,
2013-01-04 03:53:00,35.2,32.8,30.26,WNW,302,0.0,-999.0,91,0.00,,,0.00,0,Wunderground v.1.15,2013-01-04 11:53:00,
2013-01-04 03:59:00,35.5,33.1,30.26,WNW,302,0.0,-999.0,91,0.00,,,0.00,0,Wunderground v.1.15,2013-01-04 11:59:00,
2013-01-04 04:05:00,35.7,33.3,30.26,WNW,302,0.0,-999.0,91,0.00,,,0.00,0,Wunderground v.1.15,2013-01-04 12:05:00,
2013-01-04 04:10:00,35.5,32.9,30.26,WNW,302,0.0,-999.0,90,0.00,,,0.00,0,Wunderground v.1.15,2013-01-04 12:10:00,
2013-01-04 04:16:00,35.3,32.7,30.26,WNW,302,0.0,-999.0,90,0.00,,,0.00,0,Wunderground v.1.15,2013-01-04 12:16:00,
2013-01-04 04:22:00,35.4,32.8,30.26,WNW,302,0.0,-999.0,90,0.00,,,0.00,0,Wunderground v.1.15,2013-01-04 12:22:00,
2013-01-04 04:28:00,35.3,32.9,30.26,WNW,302,0.0,-999.0,91,0.00,,,0.00,0,Wunderground v.1.15,2013-01-04 12:28:00,
2013-01-04 04:33:00,35.3,32.9,30.25,WNW,302,0.0,-999.0,91,0.00,,,0.00,0,Wunderground v.1.15,2013-01-04 12:33:00,
2013-01-04 04:39:00,35.0,32.6,30.25,WNW,302,0.0,-999.0,91,0.00,,,0.00,0,Wunderground v.1.15,2013-01-04 12:39:00,
2013-01-04 04:45:00,35.0,32.6,30.25,WNW,302,0.0,-999.0,91,0.00,,,0.00,0,Wunderground v.1.15,2013-01-04 12:45:00,
2013-01-04 04:51:00,34.9,32.5,30.25,WNW,302,0.0,-999.0,91,0.00,,,0.00,0,Wunderground v.1.15,2013-01-04 12:51:00,
2013-01-04 04:56:00,34.5,32.1,30.25,WNW,302,0.0,-999.0,91,0.00,,,0.00,0,Wunderground v.1.15,2013-01-04 12:56:00,
2013-01-04 05:02:00,34.5,32.1,30.25,WNW,302,0.0,-999.0,91,0.00,,,0.00,0,Wunderground v.1.15,2013-01-04 13:02:00,
2013-01-04 05:08:00,34.7,32.3,30.25,WNW,302,0.0,-999.0,91,0.00,,,0.00,0,Wunderground v.1.15,2013-01-04 13:08:00,
2013-01-04 05:14:00,34.6,32.2,30.25,WNW,302,0.0,-999.0,91,0.00,,,0.00,0,Wunderground v.1.15,2013-01-04 13:14:00,
2013-01-04 05:19:00,34.3,31.9,30.25,WNW,302,0.0,-999.0,91,0.00,,,0.00,0,Wunderground v.1.15,2013-01-04 13:19:00,
2013-01-04 05:25:00,34.2,31.8,30.25,WNW,302,0.0,-999.0,91,0.00,,,0.00,0,Wunderground v.1.15,2013-01-04 13:25:00,
2013-01-04 05:31:00,34.1,31.7,30.25,WNW,302,0.0,-999.0,91,0.00,,,0.00,0,Wunderground v.1.15,2013-01-04 13:31:00,
2013-01-04 05:37:00,34.0,31.6,30.26,WNW,302,0.0,-999.0,91,0.00,,,0.00,0,Wunderground v.1.15,2013-01-04 13:37:00,
2013-01-04 05:43:00,33.9,31.6,30.26,WNW,302,0.0,-999.0,91,0.00,,,0.00,0,Wunderground v.1.15,2013-01-04 13:43:00,
2013-01-04 05:48:00,33.7,31.4,30.26,WNW,302,0.0,-999.0,91,0.00,,,0.00,0,Wunderground v.1.15,2013-01-04 13:48:00,
2013-01-04 05:54:00,33.8,31.7,30.26,WNW,302,0.0,-999.0,92,0.00,,,0.00,0,Wunderground v.1.15,2013-01-04 13:54:00,
2013-01-04 05:59:00,33.8,31.5,30.27,WNW,302,0.0,-999.0,91,0.00,,,0.00,0,Wunderground v.1.15,2013-01-04 13:59:00,
2013-01-04 06:05:00,34.1,32.0,30.27,WNW,302,0.0,-999.0,92,0.00,,,0.00,0,Wunderground v.1.15,2013-01-04 14:05:00,
2013-01-04 06:11:00,34.4,32.3,30.27,WNW,302,0.0,-999.0,92,0.00,,,0.00,0,Wunderground v.1.15,2013-01-04 14:11:00,
2013-01-04 06:17:00,34.4,32.0,30.27,WNW,302,0.0,-999.0,91,0.00,,,0.00,0,Wunderground v.1.15,2013-01-04 14:17:00,
2013-01-04 06:22:00,34.3,31.9,30.27,WNW,302,0.0,-999.0,91,0.00,,,0.00,0,Wunderground v.1.15,2013-01-04 14:22:00,
2013-01-04 06:28:00,34.4,32.0,30.28,WNW,302,0.0,-999.0,91,0.00,,,0.00,0,Wunderground v.1.15,2013-01-04 14:28:00,
2013-01-04 06:34:00,34.1,31.5,30.28,WNW,302,0.0,-999.0,90,0.00,,,0.00,0,Wunderground v.1.15,2013-01-04 14:34:00,
2013-01-04 06:40:00,34.0,31.4,30.28,WNW,302,0.0,-999.0,90,0.00,,,0.00,0,Wunderground v.1.15,2013-01-04 14:40:00,
2013-01-04 06:47:00,33.8,31.2,30.28,WNW,302,0.0,-999.0,90,0.00,,,0.00,0,Wunderground v.1.15,2013-01-04 14:47:00,
2013-01-04 06:53:00,33.9,31.6,30.28,WNW,302,0.0,-999.0,91,0.00,,,0.00,0,Wunderground v.1.15,2013-01-04 14:53:00,
2013-01-04 06:59:00,34.2,31.8,30.28,WNW,302,0.0,-999.0,91,0.00,,,0.00,0,Wunderground v.1.15,2013-01-04 14:59:00,
2013-01-04 07:05:00,34.2,31.6,30.28,WNW,302,0.0,-999.0,90,0.00,,,0.00,0,Wunderground v.1.15,2013-01-04 15:05:00,
2013-01-04 07:11:00,34.3,31.7,30.28,WNW,302,0.0,-999.0,90,0.00,,,0.00,0,Wunderground v.1.15,2013-01-04 15:11:00,
2013-01-04 07:17:00,34.2,31.6,30.28,WNW,302,0.0,-999.0,90,0.00,,,0.00,5,Wunderground v.1.15,2013-01-04 15:17:00,
2013-01-04 07:23:00,34.2,31.6,30.29,WNW,302,0.0,-999.0,90,0.00,,,0.00,7,Wunderground v.1.15,2013-01-04 15:23:00,
2013-01-04 07:29:00,34.2,31.6,30.29,WNW,302,0.0,-999.0,90,0.00,,,0.00,9,Wunderground v.1.15,2013-01-04 15:29:00,
2013-01-04 07:34:00,34.5,31.9,30.28,WNW,302,0.0,-999.0,90,0.00,,,0.00,11,Wunderground v.1.15,2013-01-04 15:34:00,
2013-01-04 07:40:00,34.7,32.1,30.28,WNW,302,0.0,-999.0,90,0.00,,,0.00,14,Wunderground v.1.15,2013-01-04 15:40:00,
2013-01-04 07:47:00,34.8,32.2,30.28,WNW,302,0.0,-999.0,90,0.00,,,0.00,18,Wunderground v.1.15,2013-01-04 15:47:00,
2013-01-04 07:54:00,34.4,31.8,30.28,WNW,302,0.0,-999.0,90,0.00,,,0.00,28,Wunderground v.1.15,2013-01-04 15:54:00,
2013-01-04 08:00:00,34.7,32.1,30.28,WNW,302,0.0,-999.0,90,0.00,,,0.00,44,Wunderground v.1.15,2013-01-04 16:00:00,
2013-01-04 08:05:00,35.0,32.4,30.28,WNW,302,0.0,-999.0,90,0.00,,,0.00,49,Wunderground v.1.15,2013-01-04 16:05:00,
2013-01-04 08:11:00,34.9,32.0,30.28,WNW,302,1.0,-999.0,89,0.00,,,0.00,28,Wunderground v.1.15,2013-01-04 16:11:00,
2013-01-04 08:17:00,34.9,32.0,30.29,WNW,302,1.0,-999.0,89,0.00,,,0.00,33,Wunderground v.1.15,2013-01-04 16:17:00,
2013-01-04 08:23:00,35.0,32.4,30.29,WNW,302,0.0,-999.0,90,0.00,,,0.00,90,Wunderground v.1.15,2013-01-04 16:23:00,
2013-01-04 08:28:00,35.3,32.4,30.29,WNW,302,0.0,-999.0,89,0.00,,,0.00,104,Wunderground v.1.15,2013-01-04 16:28:00,
2013-01-04 08:34:00,35.6,32.7,30.30,WNW,302,0.0,-999.0,89,0.00,,,0.00,65,Wunderground v.1.15,2013-01-04 16:34:00,
2013-01-04 08:40:00,35.8,32.6,30.30,WNW,302,0.0,-999.0,88,0.00,,,0.00,139,Wunderground v.1.15,2013-01-04 16:40:00,
2013-01-04 08:47:00,36.2,32.7,30.30,WNW,302,1.0,-999.0,87,0.00,,,0.00,155,Wunderground v.1.15,2013-01-04 16:47:00,
2013-01-04 08:53:00,36.8,33.3,30.30,WNW,302,1.0,-999.0,87,0.00,,,0.00,174,Wunderground v.1.15,2013-01-04 16:53:00,
2013-01-04 08:59:00,36.9,33.1,30.31,WNW,302,1.0,-999.0,86,0.00,,,0.00,192,Wunderground v.1.15,2013-01-04 16:59:00,
2013-01-04 09:05:00,37.1,33.6,30.31,WNW,302,0.0,-999.0,87,0.00,,,0.00,209,Wunderground v.1.15,2013-01-04 17:05:00,
2013-01-04 09:11:00,37.7,34.2,30.31,WNW,302,0.0,-999.0,87,0.00,,,0.00,223,Wunderground v.1.15,2013-01-04 17:11:00,
2013-01-04 09:17:00,38.0,34.5,30.31,WNW,302,0.0,-999.0,87,0.00,,,0.00,236,Wunderground v.1.15,2013-01-04 17:17:00,
2013-01-04 09:23:00,38.0,34.8,30.31,WNW,302,0.0,-999.0,88,0.00,,,0.00,239,Wunderground v.1.15,2013-01-04 17:23:00,
2013-01-04 09:29:00,38.0,35.0,30.30,WNW,302,1.0,-999.0,89,0.00,,,0.00,258,Wunderground v.1.15,2013-01-04 17:29:00,
2013-01-04 09:34:00,38.4,35.4,30.31,NW,304,1.0,-999.0,89,0.00,,,0.00,267,Wunderground v.1.15,2013-01-04 17:34:00,
2013-01-04 09:40:00,38.8,35.8,30.30,NW,306,1.0,-999.0,89,0.00,,,0.00,283,Wunderground v.1.15,2013-01-04 17:40:00,
2013-01-04 09:47:00,38.8,35.8,30.31,NW,308,1.0,-999.0,89,0.00,,,0.00,301,Wunderground v.1.15,2013-01-04 17:47:00,
2013-01-04 09:53:00,39.5,36.5,30.31,NW,308,0.0,-999.0,89,0.00,,,0.00,315,Wunderground v.1.15,2013-01-04 17:53:00,
2013-01-04 09:58:00,40.4,37.1,30.31,NW,308,0.0,-999.0,88,0.00,,,0.00,318,Wunderground v.1.15,2013-01-04 17:58:00,
2013-01-04 10:04:00,40.9,37.3,30.31,NW,308,0.0,-999.0,87,0.00,,,0.00,332,Wunderground v.1.15,2013-01-04 18:04:00,
2013-01-04 10:10:00,41.5,37.6,30.30,NW,308,0.0,-999.0,86,0.00,,,0.00,348,Wunderground v.1.15,2013-01-04 18:10:00,
2013-01-04 10:16:00,41.8,37.6,30.31,NW,308,0.0,-999.0,85,0.00,,,0.00,373,Wunderground v.1.15,2013-01-04 18:16:00,
2013-01-04 10:21:00,42.7,38.2,30.31,NW,308,0.0,-999.0,84,0.00,,,0.00,387,Wunderground v.1.15,2013-01-04 18:21:00,
2013-01-04 10:27:00,43.1,38.3,30.31,NW,308,0.0,-999.0,83,0.00,,,0.00,401,Wunderground v.1.15,2013-01-04 18:27:00,
2013-01-04 10:33:00,43.7,38.6,30.31,NW,308,0.0,-999.0,82,0.00,,,0.00,411,Wunderground v.1.15,2013-01-04 18:33:00,
2013-01-04 10:39:00,44.0,38.5,30.31,NW,308,0.0,-999.0,81,0.00,,,0.00,420,Wunderground v.1.15,2013-01-04 18:39:00,
2013-01-04 10:44:00,44.5,38.7,30.30,NW,308,1.0,-999.0,80,0.00,,,0.00,427,Wunderground v.1.15,2013-01-04 18:44:00,
2013-01-04 10:50:00,45.3,39.2,30.30,WNW,302,0.0,-999.0,79,0.00,,,0.00,436,Wunderground v.1.15,2013-01-04 18:50:00,
2013-01-04 10:56:00,45.4,38.9,30.30,WNW,300,1.0,-999.0,78,0.00,,,0.00,446,Wunderground v.1.15,2013-01-04 18:56:00,
2013-01-04 11:02:00,45.9,39.1,30.29,West,275,1.0,-999.0,77,0.00,,,0.00,455,Wunderground v.1.15,2013-01-04 19:02:00,
2013-01-04 11:07:00,45.9,39.1,30.29,West,275,1.0,-999.0,77,0.00,,,0.00,461,Wunderground v.1.15,2013-01-04 19:07:00,
2013-01-04 11:13:00,46.3,39.1,30.29,West,275,0.0,-999.0,76,0.00,,,0.00,468,Wunderground v.1.15,2013-01-04 19:13:00,
2013-01-04 11:19:00,47.3,39.8,30.28,West,275,1.0,-999.0,75,0.00,,,0.00,475,Wunderground v.1.15,2013-01-04 19:19:00,
2013-01-04 11:25:00,47.3,39.4,30.28,West,275,1.0,-999.0,74,0.00,,,0.00,478,Wunderground v.1.15,2013-01-04 19:25:00,
2013-01-04 11:30:00,47.9,40.0,30.28,West,275,1.0,-999.0,74,0.00,,,0.00,483,Wunderground v.1.15,2013-01-04 19:30:00,
2013-01-04 11:36:00,47.6,39.7,30.27,West,275,0.0,-999.0,74,0.00,,,0.00,487,Wunderground v.1.15,2013-01-04 19:36:00,
2013-01-04 11:42:00,48.4,39.8,30.27,West,275,0.0,-999.0,72,0.00,,,0.00,492,Wunderground v.1.15,2013-01-04 19:42:00,
2013-01-04 11:47:00,48.1,39.9,30.27,West,275,0.0,-999.0,73,0.00,,,0.00,492,Wunderground v.1.15,2013-01-04 19:47:00,
2013-01-04 11:53:00,48.3,39.7,30.27,West,275,0.0,-999.0,72,0.00,,,0.00,497,Wunderground v.1.15,2013-01-04 19:53:00,
2013-01-04 11:58:00,49.0,40.0,30.26,West,275,0.0,-999.0,71,0.00,,,0.00,499,Wunderground v.1.15,2013-01-04 19:58:00,
2013-01-04 12:04:00,49.4,40.0,30.26,West,275,0.0,-999.0,70,0.00,,,0.00,501,Wunderground v.1.15,2013-01-04 20:04:00,
2013-01-04 12:10:00,49.3,40.3,30.26,West,275,0.0,-999.0,71,0.00,,,0.00,497,Wunderground v.1.15,2013-01-04 20:10:00,
2013-01-04 12:15:00,49.6,40.2,30.26,West,275,0.0,-999.0,70,0.00,,,0.00,497,Wunderground v.1.15,2013-01-04 20:15:00,
2013-01-04 12:21:00,49.8,40.0,30.25,West,275,1.0,-999.0,69,0.00,,,0.00,499,Wunderground v.1.15,2013-01-04 20:21:00,
2013-01-04 12:27:00,49.5,39.7,30.25,West,275,1.0,-999.0,69,0.00,,,0.00,499,Wunderground v.1.15,2013-01-04 20:27:00,
2013-01-04 12:33:00,49.9,40.1,30.25,West,275,0.0,-999.0,69,0.00,,,0.00,496,Wunderground v.1.15,2013-01-04 20:33:00,
2013-01-04 12:38:00,50.2,40.8,30.25,West,275,0.0,-999.0,70,0.00,,,0.00,494,Wunderground v.1.15,2013-01-04 20:38:00,
2013-01-04 12:44:00,51.0,41.2,30.24,West,275,0.0,-999.0,69,0.00,,,0.00,489,Wunderground v.1.15,2013-01-04 20:44:00,
2013-01-04 12:50:00,50.8,40.6,30.24,West,279,1.0,-999.0,68,0.00,,,0.00,492,Wunderground v.1.15,2013-01-04 20:50:00,
2013-01-04 12:56:00,51.0,41.2,30.24,West,279,1.0,-999.0,69,0.00,,,0.00,482,Wunderground v.1.15,2013-01-04 20:56:00,
2013-01-04 13:01:00,51.1,41.3,30.24,West,280,0.0,-999.0,69,0.00,,,0.00,482,Wunderground v.1.15,2013-01-04 21:01:00,
2013-01-04 13:07:00,51.7,41.1,30.24,West,280,0.0,-999.0,67,0.00,,,0.00,478,Wunderground v.1.15,2013-01-04 21:07:00,
2013-01-04 13:13:00,52.5,41.1,30.24,West,280,0.0,-999.0,65,0.00,,,0.00,473,Wunderground v.1.15,2013-01-04 21:13:00,
2013-01-04 13:19:00,51.6,40.6,30.23,West,280,0.0,-999.0,66,0.00,,,0.00,468,Wunderground v.1.15,2013-01-04 21:19:00,
2013-01-04 13:25:00,52.4,40.6,30.23,West,280,0.0,-999.0,64,0.00,,,0.00,464,Wunderground v.1.15,2013-01-04 21:25:00,
2013-01-04 13:31:00,52.6,39.9,30.23,West,280,1.0,-999.0,62,0.00,,,0.00,455,Wunderground v.1.15,2013-01-04 21:31:00,
2013-01-04 13:37:00,52.3,39.7,30.22,West,280,0.0,-999.0,62,0.00,,,0.00,450,Wunderground v.1.15,2013-01-04 21:37:00,
2013-01-04 13:42:00,52.3,40.5,30.22,West,280,0.0,-999.0,64,0.00,,,0.00,445,Wunderground v.1.15,2013-01-04 21:42:00,
2013-01-04 13:47:00,52.8,41.0,30.22,West,261,1.0,-999.0,64,0.00,,,0.00,436,Wunderground v.1.15,2013-01-04 21:47:00,
2013-01-04 13:53:00,53.1,40.8,30.21,WNW,285,1.0,-999.0,63,0.00,,,0.00,427,Wunderground v.1.15,2013-01-04 21:53:00,
2013-01-04 13:59:00,53.4,41.1,30.21,NNW,332,1.0,-999.0,63,0.00,,,0.00,417,Wunderground v.1.15,2013-01-04 21:59:00,
2013-01-04 14:05:00,53.6,41.3,30.21,NNW,332,1.0,-999.0,63,0.00,,,0.00,404,Wunderground v.1.15,2013-01-04 22:05:00,
2013-01-04 14:10:00,53.9,40.8,30.21,North,351,0.0,-999.0,61,0.00,,,0.00,396,Wunderground v.1.15,2013-01-04 22:10:00,
2013-01-04 14:16:00,53.7,41.4,30.21,North,351,0.0,-999.0,63,0.00,,,0.00,383,Wunderground v.1.15,2013-01-04 22:16:00,
2013-01-04 14:22:00,54.2,41.5,30.21,SSE,159,1.0,-999.0,62,0.00,,,0.00,378,Wunderground v.1.15,2013-01-04 22:22:00,
2013-01-04 14:28:00,54.2,41.5,30.21,SSE,159,1.0,-999.0,62,0.00,,,0.00,362,Wunderground v.1.15,2013-01-04 22:28:00,
2013-01-04 14:33:00,54.3,41.6,30.20,SSE,158,0.0,-999.0,62,0.00,,,0.00,352,Wunderground v.1.15,2013-01-04 22:33:00,
2013-01-04 14:39:00,54.6,41.4,30.20,SSE,154,1.0,-999.0,61,0.00,,,0.00,339,Wunderground v.1.15,2013-01-04 22:39:00,
2013-01-04 14:45:00,54.5,41.7,30.20,SSE,148,1.0,-999.0,62,0.00,,,0.00,323,Wunderground v.1.15,2013-01-04 22:45:00,
2013-01-04 14:50:00,54.8,42.4,30.20,SSE,148,1.0,-999.0,63,0.00,,,0.00,313,Wunderground v.1.15,2013-01-04 22:50:00,
2013-01-04 14:56:00,54.6,40.6,30.20,SE,136,1.0,-999.0,59,0.00,,,0.00,299,Wunderground v.1.15,2013-01-04 22:56:00,
2013-01-04 15:01:00,54.6,41.0,30.20,SE,136,1.0,-999.0,60,0.00,,,0.00,287,Wunderground v.1.15,2013-01-04 23:01:00,
2013-01-04 15:07:00,54.6,40.6,30.20,SE,136,1.0,-999.0,59,0.00,,,0.00,272,Wunderground v.1.15,2013-01-04 23:07:00,
2013-01-04 15:13:00,54.7,41.1,30.20,SE,136,0.0,-999.0,60,0.00,,,0.00,253,Wunderground v.1.15,2013-01-04 23:13:00,
2013-01-04 15:19:00,54.7,41.1,30.20,SE,136,0.0,-999.0,60,0.00,,,0.00,236,Wunderground v.1.15,2013-01-04 23:19:00,
2013-01-04 15:24:00,54.8,41.6,30.20,SE,136,0.0,-999.0,61,0.00,,,0.00,220,Wunderground v.1.15,2013-01-04 23:24:00,
2013-01-04 15:30:00,54.6,41.8,30.20,SE,136,0.0,-999.0,62,0.00,,,0.00,200,Wunderground v.1.15,2013-01-04 23:30:00,
2013-01-04 15:36:00,54.5,41.7,30.20,SE,136,0.0,-999.0,62,0.00,,,0.00,181,Wunderground v.1.15,2013-01-04 23:36:00,
2013-01-04 15:41:00,54.5,41.7,30.20,SE,136,0.0,-999.0,62,0.00,,,0.00,163,Wunderground v.1.15,2013-01-04 23:41:00,
2013-01-04 15:47:00,54.8,42.0,30.20,SE,136,1.0,-999.0,62,0.00,,,0.00,148,Wunderground v.1.15,2013-01-04 23:47:00,
2013-01-04 15:53:00,54.5,42.2,30.19,SE,136,0.0,-999.0,63,0.00,,,0.00,125,Wunderground v.1.15,2013-01-04 23:53:00,
2013-01-04 15:59:00,54.5,41.7,30.19,SE,136,0.0,-999.0,62,0.00,,,0.00,105,Wunderground v.1.15,2013-01-04 23:59:00,
2013-01-04 16:05:00,54.4,42.1,30.19,SE,136,0.0,-999.0,63,0.00,,,0.00,90,Wunderground v.1.15,2013-01-05 00:05:00,
2013-01-04 16:10:00,54.4,42.1,30.19,SE,136,0.0,-999.0,63,0.00,,,0.00,76,Wunderground v.1.15,2013-01-05 00:10:00,
2013-01-04 16:16:00,54.4,42.5,30.19,SE,136,0.0,-999.0,64,0.00,,,0.00,60,Wunderground v.1.15,2013-01-05 00:16:00,
2013-01-04 16:22:00,54.0,42.5,30.19,SE,136,0.0,-999.0,65,0.00,,,0.00,47,Wunderground v.1.15,2013-01-05 00:22:00,
2013-01-04 16:28:00,53.7,42.6,30.19,SE,136,0.0,-999.0,66,0.00,,,0.00,37,Wunderground v.1.15,2013-01-05 00:28:00,
2013-01-04 16:33:00,53.6,42.5,30.19,SE,136,0.0,-999.0,66,0.00,,,0.00,21,Wunderground v.1.15,2013-01-05 00:33:00,
2013-01-04 16:39:00,53.4,42.3,30.19,SE,136,0.0,-999.0,66,0.00,,,0.00,16,Wunderground v.1.15,2013-01-05 00:39:00,
2013-01-04 16:45:00,53.1,42.4,30.19,SE,136,0.0,-999.0,67,0.00,,,0.00,12,Wunderground v.1.15,2013-01-05 00:45:00,
2013-01-04 16:51:00,52.8,42.1,30.19,SE,136,0.0,-999.0,67,0.00,,,0.00,9,Wunderground v.1.15,2013-01-05 00:51:00,
2013-01-04 16:56:00,52.6,42.3,30.18,SE,136,0.0,-999.0,68,0.00,,,0.00,7,Wunderground v.1.15,2013-01-05 00:56:00,
2013-01-04 17:02:00,52.3,42.0,30.18,SE,136,0.0,-999.0,68,0.00,,,0.00,0,Wunderground v.1.15,2013-01-05 01:02:00,
2013-01-04 17:08:00,52.1,41.9,30.18,SE,136,0.0,-999.0,68,0.00,,,0.00,0,Wunderground v.1.15,2013-01-05 01:08:00,
2013-01-04 17:14:00,51.4,41.6,30.18,SE,136,0.0,-999.0,69,0.00,,,0.00,0,Wunderground v.1.15,2013-01-05 01:14:00,
2013-01-04 17:19:00,51.3,41.8,30.19,SE,136,0.0,-999.0,70,0.00,,,0.00,0,Wunderground v.1.15,2013-01-05 01:19:00,
2013-01-04 17:25:00,51.0,41.6,30.19,SE,136,0.0,-999.0,70,0.00,,,0.00,0,Wunderground v.1.15,2013-01-05 01:25:00,
2013-01-04 17:31:00,50.6,41.5,30.19,SE,136,0.0,-999.0,71,0.00,,,0.00,0,Wunderground v.1.15,2013-01-05 01:31:00,
2013-01-04 17:37:00,50.4,41.7,30.19,SE,136,0.0,-999.0,72,0.00,,,0.00,0,Wunderground v.1.15,2013-01-05 01:37:00,
2013-01-04 17:43:00,50.2,41.5,30.19,SE,136,0.0,-999.0,72,0.00,,,0.00,0,Wunderground v.1.15,2013-01-05 01:43:00,
2013-01-04 17:48:00,50.0,41.7,30.19,SE,136,0.0,-999.0,73,0.00,,,0.00,0,Wunderground v.1.15,2013-01-05 01:48:00,
2013-01-04 17:53:00,49.7,41.4,30.19,SE,136,0.0,-999.0,73,0.00,,,0.00,0,Wunderground v.1.15,2013-01-05 01:53:00,
2013-01-04 17:59:00,49.5,41.6,30.19,SE,136,0.0,-999.0,74,0.00,,,0.00,0,Wunderground v.1.15,2013-01-05 01:59:00,
2013-01-04 18:05:00,49.4,41.5,30.19,SE,136,0.0,-999.0,74,0.00,,,0.00,0,Wunderground v.1.15,2013-01-05 02:05:00,
2013-01-04 18:11:00,49.1,41.2,30.20,SE,136,0.0,-999.0,74,0.00,,,0.00,0,Wunderground v.1.15,2013-01-05 02:11:00,
2013-01-04 18:17:00,48.1,41.2,30.20,SE,136,0.0,-999.0,77,0.00,,,0.00,0,Wunderground v.1.15,2013-01-05 02:17:00,
2013-01-04 18:23:00,48.1,41.2,30.20,SE,136,0.0,-999.0,77,0.00,,,0.00,0,Wunderground v.1.15,2013-01-05 02:23:00,
2013-01-04 18:29:00,47.7,40.8,30.21,SE,136,0.0,-999.0,77,0.00,,,0.00,0,Wunderground v.1.15,2013-01-05 02:29:00,
2013-01-04 18:34:00,47.7,40.8,30.21,SE,136,0.0,-999.0,77,0.00,,,0.00,0,Wunderground v.1.15,2013-01-05 02:34:00,
2013-01-04 18:40:00,47.7,40.8,30.21,SE,136,0.0,-999.0,77,0.00,,,0.00,0,Wunderground v.1.15,2013-01-05 02:40:00,
2013-01-04 18:47:00,47.2,40.7,30.20,SE,136,0.0,-999.0,78,0.00,,,0.00,0,Wunderground v.1.15,2013-01-05 02:47:00,
2013-01-04 18:53:00,46.8,40.6,30.21,SE,136,0.0,-999.0,79,0.00,,,0.00,0,Wunderground v.1.15,2013-01-05 02:53:00,
2013-01-04 18:58:00,46.7,40.9,30.21,SE,136,0.0,-999.0,80,0.00,,,0.00,0,Wunderground v.1.15,2013-01-05 02:58:00,
2013-01-04 19:04:00,46.7,40.9,30.21,SE,136,0.0,-999.0,80,0.00,,,0.00,0,Wunderground v.1.15,2013-01-05 03:04:00,
2013-01-04 19:10:00,46.6,40.8,30.21,SE,136,0.0,-999.0,80,0.00,,,0.00,0,Wunderground v.1.15,2013-01-05 03:10:00,
2013-01-04 19:16:00,46.7,40.9,30.21,SE,136,0.0,-999.0,80,0.00,,,0.00,0,Wunderground v.1.15,2013-01-05 03:16:00,
2013-01-04 19:21:00,46.4,40.6,30.21,SE,136,0.0,-999.0,80,0.00,,,0.00,0,Wunderground v.1.15,2013-01-05 03:21:00,
2013-01-04 19:27:00,46.1,40.3,30.21,SE,136,0.0,-999.0,80,0.00,,,0.00,0,Wunderground v.1.15,2013-01-05 03:27:00,
2013-01-04 19:33:00,45.9,40.1,30.21,SE,136,0.0,-999.0,80,0.00,,,0.00,0,Wunderground v.1.15,2013-01-05 03:33:00,
2013-01-04 19:39:00,45.8,40.0,30.21,SE,136,0.0,-999.0,80,0.00,,,0.00,0,Wunderground v.1.15,2013-01-05 03:39:00,
2013-01-04 19:44:00,45.6,40.4,30.22,SE,136,0.0,-999.0,82,0.00,,,0.00,0,Wunderground v.1.15,2013-01-05 03:44:00,
2013-01-04 19:49:00,45.3,39.8,30.22,SE,136,0.0,-999.0,81,0.00,,,0.00,0,Wunderground v.1.15,2013-01-05 03:49:00,
2013-01-04 19:55:00,45.2,39.7,30.22,SE,136,0.0,-999.0,81,0.00,,,0.00,0,Wunderground v.1.15,2013-01-05 03:55:00,
2013-01-04 20:01:00,45.2,40.0,30.22,SE,136,0.0,-999.0,82,0.00,,,0.00,0,Wunderground v.1.15,2013-01-05 04:01:00,
2013-01-04 20:06:00,45.0,39.8,30.22,SE,136,0.0,-999.0,82,0.00,,,0.00,0,Wunderground v.1.15,2013-01-05 04:06:00,
2013-01-04 20:12:00,44.6,39.8,30.22,SE,136,0.0,-999.0,83,0.00,,,0.00,0,Wunderground v.1.15,2013-01-05 04:12:00,
2013-01-04 20:18:00,44.6,39.8,30.22,SE,136,0.0,-999.0,83,0.00,,,0.00,0,Wunderground v.1.15,2013-01-05 04:18:00,
2013-01-04 20:24:00,44.6,40.1,30.22,SE,136,0.0,-999.0,84,0.00,,,0.00,0,Wunderground v.1.15,2013-01-05 04:24:00,
2013-01-04 20:29:00,44.5,40.0,30.22,SE,136,0.0,-999.0,84,0.00,,,0.00,0,Wunderground v.1.15,2013-01-05 04:29:00,
2013-01-04 20:35:00,44.1,39.6,30.22,SE,136,0.0,-999.0,84,0.00,,,0.00,0,Wunderground v.1.15,2013-01-05 04:35:00,
2013-01-04 20:41:00,43.9,39.7,30.22,SE,136,0.0,-999.0,85,0.00,,,0.00,0,Wunderground v.1.15,2013-01-05 04:41:00,
2013-01-04 20:44:00,43.6,39.7,30.23,SE,136,0.0,-999.0,86,0.00,,,0.00,0,Wunderground v.1.15,2013-01-05 04:44:00,
2013-01-04 20:45:00,43.5,39.3,30.23,SE,136,0.0,-999.0,85,0.00,,,0.00,0,Wunderground v.1.15,2013-01-05 04:45:00,
2013-01-04 20:46:00,43.5,39.3,30.23,SE,136,0.0,-999.0,85,0.00,,,0.00,0,Wunderground v.1.15,2013-01-05 04:46:00,
2013-01-04 20:47:00,43.8,39.6,30.23,SE,136,0.0,-999.0,85,0.00,,,0.00,0,Wunderground v.1.15,2013-01-05 04:47:00,
2013-01-04 20:48:00,43.4,39.5,30.23,SE,136,0.0,-999.0,86,0.00,,,0.00,0,Wunderground v.1.15,2013-01-05 04:48:00,
2013-01-04 20:49:00,43.4,39.2,30.23,SE,136,0.0,-999.0,85,0.00,,,0.00,0,Wunderground v.1.15,2013-01-05 04:49:00,
2013-01-04 20:50:00,43.3,39.1,30.23,SE,136,0.0,-999.0,85,0.00,,,0.00,0,Wunderground v.1.15,2013-01-05 04:50:00,
2013-01-04 20:51:00,43.3,39.4,30.23,SE,136,0.0,-999.0,86,0.00,,,0.00,0,Wunderground v.1.15,2013-01-05 04:51:00,
2013-01-04 20:52:00,43.3,39.4,30.23,SE,136,0.0,-999.0,86,0.00,,,0.00,0,Wunderground v.1.15,2013-01-05 04:52:00,
2013-01-04 20:53:00,43.7,39.5,30.23,SE,136,0.0,-999.0,85,0.00,,,0.00,0,Wunderground v.1.15,2013-01-05 04:53:00,
2013-01-04 20:54:00,43.2,39.3,30.23,SE,136,0.0,-999.0,86,0.00,,,0.00,0,Wunderground v.1.15,2013-01-05 04:54:00,
2013-01-04 20:55:00,43.2,39.3,30.23,SE,136,0.0,-999.0,86,0.00,,,0.00,0,Wunderground v.1.15,2013-01-05 04:55:00,
2013-01-04 20:56:00,43.2,39.3,30.23,SE,136,0.0,-999.0,86,0.00,,,0.00,0,Wunderground v.1.15,2013-01-05 04:56:00,
2013-01-04 20:57:00,43.3,39.4,30.23,SE,136,0.0,-999.0,86,0.00,,,0.00,0,Wunderground v.1.15,2013-01-05 04:57:00,
2013-01-04 20:58:00,43.3,39.4,30.23,SE,136,0.0,-999.0,86,0.00,,,0.00,0,Wunderground v.1.15,2013-01-05 04:58:00,
2013-01-04 20:59:00,43.6,39.4,30.23,SE,136,0.0,-999.0,85,0.00,,,0.00,0,Wunderground v.1.15,2013-01-05 04:59:00,
2013-01-04 21:00:00,43.3,39.4,30.23,SE,136,0.0,-999.0,86,0.00,,,0.00,0,Wunderground v.1.15,2013-01-05 05:00:00,
2013-01-04 21:01:00,43.3,39.4,30.23,SE,136,0.0,-999.0,86,0.00,,,0.00,0,Wunderground v.1.15,2013-01-05 05:01:00,
2013-01-04 21:02:00,43.3,39.4,30.23,SE,136,0.0,-999.0,86,0.00,,,0.00,0,Wunderground v.1.15,2013-01-05 05:02:00,
2013-01-04 21:03:00,43.3,39.4,30.23,SE,136,0.0,-999.0,86,0.00,,,0.00,0,Wunderground v.1.15,2013-01-05 05:03:00,
2013-01-04 21:04:00,43.3,39.4,30.23,SE,136,0.0,-999.0,86,0.00,,,0.00,0,Wunderground v.1.15,2013-01-05 05:04:00,
2013-01-04 21:05:00,43.3,39.4,30.23,SE,136,0.0,-999.0,86,0.00,,,0.00,0,Wunderground v.1.15,2013-01-05 05:05:00,
2013-01-04 21:06:00,43.3,39.4,30.23,SE,136,0.0,-999.0,86,0.00,,,0.00,0,Wunderground v.1.15,2013-01-05 05:06:00,
2013-01-04 21:07:00,43.2,39.0,30.23,SE,136,0.0,-999.0,85,0.00,,,0.00,0,Wunderground v.1.15,2013-01-05 05:07:00,
2013-01-04 21:08:00,43.2,39.0,30.23,SE,136,0.0,-999.0,85,0.00,,,0.00,0,Wunderground v.1.15,2013-01-05 05:08:00,
2013-01-04 21:09:00,43.2,39.3,30.24,SE,136,0.0,-999.0,86,0.00,,,0.00,0,Wunderground v.1.15,2013-01-05 05:09:00,
2013-01-04 21:10:00,43.1,39.2,30.23,SE,136,0.0,-999.0,86,0.00,,,0.00,0,Wunderground v.1.15,2013-01-05 05:10:00,
2013-01-04 21:11:00,43.1,39.2,30.24,SE,136,0.0,-999.0,86,0.00,,,0.00,0,Wunderground v.1.15,2013-01-05 05:11:00,
2013-01-04 21:12:00,43.0,39.1,30.23,SE,136,0.0,-999.0,86,0.00,,,0.00,0,Wunderground v.1.15,2013-01-05 05:12:00,
2013-01-04 21:13:00,42.9,38.7,30.23,SE,136,0.0,-999.0,85,0.00,,,0.00,0,Wunderground v.1.15,2013-01-05 05:13:00,
2013-01-04 21:14:00,42.8,38.6,30.23,SE,136,0.0,-999.0,85,0.00,,,0.00,0,Wunderground v.1.15,2013-01-05 05:14:00,
2013-01-04 21:15:00,42.7,38.5,30.23,SE,136,0.0,-999.0,85,0.00,,,0.00,0,Wunderground v.1.15,2013-01-05 05:15:00,
2013-01-04 21:16:00,42.6,38.7,30.23,SE,136,0.0,-999.0,86,0.00,,,0.00,0,Wunderground v.1.15,2013-01-05 05:16:00,
2013-01-04 21:17:00,42.5,38.6,30.23,SE,136,0.0,-999.0,86,0.00,,,0.00,0,Wunderground v.1.15,2013-01-05 05:17:00,
2013-01-04 21:18:00,42.5,38.6,30.23,SE,136,0.0,-999.0,86,0.00,,,0.00,0,Wunderground v.1.15,2013-01-05 05:18:00,
2013-01-04 21:19:00,42.5,38.6,30.23,SE,136,0.0,-999.0,86,0.00,,,0.00,0,Wunderground v.1.15,2013-01-05 05:19:00,
2013-01-04 21:20:00,42.5,38.6,30.23,SE,136,0.0,-999.0,86,0.00,,,0.00,0,Wunderground v.1.15,2013-01-05 05:20:00,
2013-01-04 21:21:00,42.5,38.6,30.23,SE,136,0.0,-999.0,86,0.00,,,0.00,0,Wunderground v.1.15,2013-01-05 05:21:00,
2013-01-04 21:22:00,42.4,38.5,30.23,SE,136,0.0,-999.0,86,0.00,,,0.00,0,Wunderground v.1.15,2013-01-05 05:22:00,
2013-01-04 21:27:00,42.2,38.6,30.24,SE,136,0.0,-999.0,87,0.00,,,0.00,0,Wunderground v.1.15,2013-01-05 05:27:00,
2013-01-04 21:28:00,42.2,38.6,30.24,SE,136,0.0,-999.0,87,0.00,,,0.00,0,Wunderground v.1.15,2013-01-05 05:28:00,
2013-01-04 21:29:00,42.2,38.6,30.24,SE,136,0.0,-999.0,87,0.00,,,0.00,0,Wunderground v.1.15,2013-01-05 05:29:00,
2013-01-04 21:31:00,42.3,38.7,30.24,SE,136,0.0,-999.0,87,0.00,,,0.00,0,Wunderground v.1.15,2013-01-05 05:31:00,
2013-01-04 21:32:00,42.3,38.7,30.24,SE,136,0.0,-999.0,87,0.00,,,0.00,0,Wunderground v.1.15,2013-01-05 05:32:00,
2013-01-04 21:33:00,42.3,38.7,30.24,SE,136,0.0,-999.0,87,0.00,,,0.00,0,Wunderground v.1.15,2013-01-05 05:33:00,
2013-01-04 21:34:00,42.2,38.6,30.24,SE,136,0.0,-999.0,87,0.00,,,0.00,0,Wunderground v.1.15,2013-01-05 05:34:00,
2013-01-04 21:35:00,42.2,38.6,30.24,SE,136,0.0,-999.0,87,0.00,,,0.00,0,Wunderground v.1.15,2013-01-05 05:35:00,
2013-01-04 21:36:00,42.1,38.5,30.24,SE,136,0.0,-999.0,87,0.00,,,0.00,0,Wunderground v.1.15,2013-01-05 05:36:00,
2013-01-04 21:37:00,42.0,38.1,30.24,SE,136,0.0,-999.0,86,0.00,,,0.00,0,Wunderground v.1.15,2013-01-05 05:37:00,
2013-01-04 21:38:00,42.0,38.4,30.24,SE,136,0.0,-999.0,87,0.00,,,0.00,0,Wunderground v.1.15,2013-01-05 05:38:00,
2013-01-04 21:39:00,42.4,38.5,30.23,SE,136,0.0,-999.0,86,0.00,,,0.00,0,Wunderground v.1.15,2013-01-05 05:39:00,
2013-01-04 21:40:00,41.9,38.3,30.24,SE,136,0.0,-999.0,87,0.00,,,0.00,0,Wunderground v.1.15,2013-01-05 05:40:00,
2013-01-04 21:42:00,41.9,38.3,30.24,SE,136,0.0,-999.0,87,0.00,,,0.00,0,Wunderground v.1.15,2013-01-05 05:42:00,
2013-01-04 21:43:00,41.9,38.3,30.24,SE,136,0.0,-999.0,87,0.00,,,0.00,0,Wunderground v.1.15,2013-01-05 05:43:00,
2013-01-04 21:44:00,41.9,38.3,30.24,SE,136,0.0,-999.0,87,0.00,,,0.00,0,Wunderground v.1.15,2013-01-05 05:44:00,
2013-01-04 21:45:00,41.9,38.3,30.24,SE,136,0.0,-999.0,87,0.00,,,0.00,0,Wunderground v.1.15,2013-01-05 05:45:00,
2013-01-04 21:48:00,41.8,38.2,30.24,SE,136,0.0,-999.0,87,0.00,,,0.00,0,Wunderground v.1.15,2013-01-05 05:48:00,
2013-01-04 21:53:00,41.5,37.9,30.24,SE,136,0.0,-999.0,87,0.00,,,0.00,0,Wunderground v.1.15,2013-01-05 05:53:00,
2013-01-04 21:57:00,41.9,38.3,30.24,SE,136,0.0,-999.0,87,0.00,,,0.00,0,Wunderground v.1.15,2013-01-05 05:57:00,
2013-01-04 22:00:00,41.4,38.1,30.25,SE,136,0.0,-999.0,88,0.00,,,0.00,0,Wunderground v.1.15,2013-01-05 06:00:00,
2013-01-04 22:02:00,41.9,38.3,30.24,SE,136,0.0,-999.0,87,0.00,,,0.00,0,Wunderground v.1.15,2013-01-05 06:02:00,
2013-01-04 22:03:00,41.3,38.0,30.25,SE,136,0.0,-999.0,88,0.00,,,0.00,0,Wunderground v.1.15,2013-01-05 06:03:00,
2013-01-04 22:05:00,41.2,37.9,30.25,SE,136,0.0,-999.0,88,0.00,,,0.00,0,Wunderground v.1.15,2013-01-05 06:05:00,
2013-01-04 22:06:00,41.2,37.9,30.25,SE,136,0.0,-999.0,88,0.00,,,0.00,0,Wunderground v.1.15,2013-01-05 06:06:00,
2013-01-04 22:08:00,41.6,38.0,30.24,SE,136,0.0,-999.0,87,0.00,,,0.00,0,Wunderground v.1.15,2013-01-05 06:08:00,
2013-01-04 22:09:00,41.1,37.8,30.25,SE,136,0.0,-999.0,88,0.00,,,0.00,0,Wunderground v.1.15,2013-01-05 06:09:00,
2013-01-04 22:10:00,41.1,37.8,30.25,SE,136,0.0,-999.0,88,0.00,,,0.00,0,Wunderground v.1.15,2013-01-05 06:10:00,
2013-01-04 22:11:00,41.1,37.8,30.25,SE,136,0.0,-999.0,88,0.00,,,0.00,0,Wunderground v.1.15,2013-01-05 06:11:00,
2013-01-04 22:14:00,41.5,38.2,30.25,SE,136,0.0,-999.0,88,0.00,,,0.00,0,Wunderground v.1.15,2013-01-05 06:14:00,
2013-01-04 22:16:00,41.2,37.9,30.25,SE,136,0.0,-999.0,88,0.00,,,0.00,0,Wunderground v.1.15,2013-01-05 06:16:00,
2013-01-04 22:20:00,41.3,38.0,30.25,SE,136,0.0,-999.0,88,0.00,,,0.00,0,Wunderground v.1.15,2013-01-05 06:20:00,
2013-01-04 22:23:00,41.3,38.0,30.25,SE,136,0.0,-999.0,88,0.00,,,0.00,0,Wunderground v.1.15,2013-01-05 06:23:00,
2013-01-04 22:24:00,41.3,38.0,30.25,SE,136,0.0,-999.0,88,0.00,,,0.00,0,Wunderground v.1.15,2013-01-05 06:24:00,
2013-01-04 22:28:00,41.2,37.9,30.25,SE,136,0.0,-999.0,88,0.00,,,0.00,0,Wunderground v.1.15,2013-01-05 06:28:00,
2013-01-04 22:31:00,41.3,38.0,30.25,SE,136,0.0,-999.0,88,0.00,,,0.00,0,Wunderground v.1.15,2013-01-05 06:31:00,
2013-01-04 22:32:00,41.3,38.0,30.25,SE,136,0.0,-999.0,88,0.00,,,0.00,0,Wunderground v.1.15,2013-01-05 06:32:00,
2013-01-04 22:33:00,41.3,38.0,30.25,SE,136,0.0,-999.0,88,0.00,,,0.00,0,Wunderground v.1.15,2013-01-05 06:33:00,
2013-01-04 22:34:00,41.3,38.0,30.25,SE,136,0.0,-999.0,88,0.00,,,0.00,0,Wunderground v.1.15,2013-01-05 06:34:00,
2013-01-04 22:35:00,41.2,37.9,30.25,SE,136,0.0,-999.0,88,0.00,,,0.00,0,Wunderground v.1.15,2013-01-05 06:35:00,
2013-01-04 22:36:00,41.2,37.9,30.25,SE,136,0.0,-999.0,88,0.00,,,0.00,0,Wunderground v.1.15,2013-01-05 06:36:00,
2013-01-04 22:38:00,41.2,37.9,30.25,SE,136,0.0,-999.0,88,0.00,,,0.00,0,Wunderground v.1.15,2013-01-05 06:38:00,
2013-01-04 22:39:00,41.2,37.9,30.25,SE,136,0.0,-999.0,88,0.00,,,0.00,0,Wunderground v.1.15,2013-01-05 06:39:00,
2013-01-04 22:41:00,41.3,38.0,30.25,SE,136,0.0,-999.0,88,0.00,,,0.00,0,Wunderground v.1.15,2013-01-05 06:41:00,
2013-01-04 22:49:00,41.4,38.1,30.24,SE,136,0.0,-999.0,88,0.00,,,0.00,0,Wunderground v.1.15,2013-01-05 06:49:00,
2013-01-04 22:53:00,41.2,37.9,30.25,SE,136,0.0,-999.0,88,0.00,,,0.00,0,Wunderground v.1.15,2013-01-05 06:53:00,
2013-01-04 22:59:00,41.2,37.9,30.25,SE,136,0.0,-999.0,88,0.00,,,0.00,0,Wunderground v.1.15,2013-01-05 06:59:00,
2013-01-04 23:00:00,41.3,38.0,30.24,SE,136,0.0,-999.0,88,0.00,,,0.00,0,Wunderground v.1.15,2013-01-05 07:00:00,
2013-01-04 23:06:00,41.3,38.0,30.24,SE,136,0.0,-999.0,88,0.00,,,0.00,0,Wunderground v.1.15,2013-01-05 07:06:00,
2013-01-04 23:12:00,41.4,38.1,30.24,SE,136,0.0,-999.0,88,0.00,,,0.00,0,Wunderground v.1.15,2013-01-05 07:12:00,
2013-01-04 23:15:00,40.8,37.8,30.24,SE,136,0.0,-999.0,89,0.00,,,0.00,0,Wunderground v.1.15,2013-01-05 07:15:00,
2013-01-04 23:17:00,41.3,38.0,30.24,SE,136,0.0,-999.0,88,0.00,,,0.00,0,Wunderground v.1.15,2013-01-05 07:17:00,
2013-01-04 23:18:00,40.9,37.9,30.24,SE,136,0.0,-999.0,89,0.00,,,0.00,0,Wunderground v.1.15,2013-01-05 07:18:00,
2013-01-04 23:23:00,41.0,37.7,30.24,SE,136,0.0,-999.0,88,0.00,,,0.00,0,Wunderground v.1.15,2013-01-05 07:23:00,
2013-01-04 23:29:00,40.9,37.6,30.24,SE,136,0.0,-999.0,88,0.00,,,0.00,0,Wunderground v.1.15,2013-01-05 07:29:00,
2013-01-04 23:35:00,40.9,37.9,30.24,SE,136,0.0,-999.0,89,0.00,,,0.00,0,Wunderground v.1.15,2013-01-05 07:35:00,
2013-01-04 23:40:00,40.7,37.7,30.24,SE,136,0.0,-999.0,89,0.00,,,0.00,0,Wunderground v.1.15,2013-01-05 07:40:00,
2013-01-04 23:47:00,40.5,37.5,30.24,SE,136,0.0,-999.0,89,0.00,,,0.00,0,Wunderground v.1.15,2013-01-05 07:47:00,
2013-01-04 23:53:00,40.3,37.3,30.24,SE,136,0.0,-999.0,89,0.00,,,0.00,0,Wunderground v.1.15,2013-01-05 07:53:00,
2013-01-04 23:59:00,40.2,37.2,30.23,SE,136,0.0,-999.0,89,0.00,,,0.00,0,Wunderground v.1.15,2013-01-05 07:59:00,